Location: Beau Repaire
(50.6144°N, 4.0551°E)
Time: 10:29:51
(UTC+00:00)

Cosmos 1953 Rocket - Pass Details

Date: 15 May 2026
Orbit: 597 x 628 km, 82.5° (Epoch: 5 June)

Event Time Altitude Azimuth Distance (km) Brightness Sun altitude
Rises 22:11:48 0° 345° (NNW) 2,883 8.7 -17.7°
Reaches altitude 10° 22:14:04 10° 341° (NNW) 1,969 7.4 -17.8°
Maximum altitude 22:18:17 52° 266° (W) 759 4.0 -18.0°
Enters shadow 22:20:10 29° 205° (SSW) 1,108 4.5 -18.1°
